Regional Weather Roundup
Issued by NWS

Home | Current Version | Previous Version | Text Only | Print | Product List | Glossary On
Versions: 1 2 3 4 5 6 7 8 9 10 11 12 13 14 15 16 17 18 19 20 21 22 23 24 25 26 27
000
ASUS42 KTBW 260917
RWRFL
FLORIDA REGIONAL WEATHER ROUNDUP
NATIONAL WEATHER SERVICE TAMPA BAY RUSKIN FL
500 AM EDT MON JUN 26 2017

NOTE: "FAIR" INDICATES FEW OR NO CLOUDS BELOW 12,000 FEET WITH NO
SIGNIFICANT WEATHER AND/OR OBSTRUCTIONS TO VISIBILITY.

FLZ001>010-012>015-112-114-115-261000-
PANHANDLE FLORIDA

CITY           SKY/WX    TMP DP  RH WIND       PRES   REMARKS
PENSACOLA      PTCLDY    74  61  63 N7        30.10R
PENSACOLA NAS  PTCLDY    70  62  76 N5        30.09R
MILTON NAS     CLEAR     67  60  78 N3        30.10
CRESTVIEW      CLEAR     67  62  84 CALM      30.11S
DUKE FIELD     FAIR      66  63  90 N3        30.09S
VALPARAISO     PTCLDY    70  65  84 N6        30.08S
PANAMA CITY    FAIR      72  68  87 NW5       30.07F
TYNDALL AFB    PTCLDY    75  68  77 NE6       30.07S
APALACHICOLA   CLOUDY    75  75 100 N3        30.06S

STATION/POSITION SKY/WX   TEMP    WIND        PRES    WAVE   SWELL
                          AIR SEA DIR/SP/G            HT/PER HT/PER
                          (F)     (DEG/KT/KT) (MB)    (FT/S) (FT/S)
30.1N   87.6W              78 82   50/ 14/ 17 1018.2S   2/ 3
29.2N   88.2W              78 84  120/  8/ 10 1018.5
28.8N   86.0W              81 83   80/  2/  2 1017.7S   2/ 7   2/ 7
PANAMA CITY BEAC           74 83   20/  6/  8 1018.6F
TOWER C                    78      20/  4/  5 1018.6R
28.5N   84.5W              82 83   CALM  /  2 1017.6F   1/ 7   2/ 7

$$
FLZ011-016>038-118-127-128-134-139-239-261000-
NORTH FLORIDA

CITY           SKY/WX    TMP DP  RH WIND       PRES   REMARKS
MARIANNA       CLOUDY    71  67  87 NW3       30.07F
TALLAHASSEE    CLOUDY    75  73  93 N3        30.06F
PERRY          CLOUDY    76  74  94 CALM      30.08S
CROSS CITY     PTCLDY    73  72  94 CALM      30.06S
LAKE CITY      FAIR      72  72 100 N5        30.07R
GAINESVILLE    CLOUDY    75  73  93 CALM      30.07R
WILLISTON      CLEAR     77  75  94 CALM      30.06S
PALATKA        CLOUDY    73  73 100 CALM      30.07R
MAYPORT NAS    PTCLDY    75  73  93 SW3       30.05S
JACKSONVILLE   MOCLDY    75  75 100 CALM      30.05S
JAX NAS        PTCLDY    75  73  93 SW5       30.06S
FERNANDINA BEA FAIR      79  77  94 W3        30.05R
ST AUGUSTINE   CLEAR     73  72  96 W6        30.06S
PALM COAST     CLOUDY    74  74 100 CALM      30.05S

STATION/POSITION SKY/WX   TEMP    WIND        PRES    WAVE   SWELL
                          AIR SEA DIR/SP/G            HT/PER HT/PER
                          (F)     (DEG/KT/KT) (MB)    (FT/S) (FT/S)
SHELL POINT      NOT AVBL
KEATON BEACH               75      10/  2/  3 1017.7R
CEDAR KEY                  80      20/  4/  5 1018.2R
FERNANDINA                 78 84  260/  5/  7 1018.5S
30.7N   81.3W                 80                N/A     2/ 8
MAYPORT                    75 81  260/  4/  5 1018.0F
31.4N   80.9W              79 82  280/ 10/ 12 1017.2F   2/ 8   2/ 8
ST AUGUSTINE               74 77  270/  3/  4 1017.8R

$$
FLZ040-043>046-052-053-057-058-063-144-261000-
INTERIOR CENTRAL FLORIDA

CITY           SKY/WX    TMP DP  RH WIND       PRES   REMARKS
OCALA          CLOUDY    74  74 100 CALM      30.07R
THE VILLAGES     N/A     77  77 100 CALM      29.96S
LEESBURG       PTCLDY    80  75  84 S7        30.06F
SANFORD        CLOUDY    78  75  90 S6        30.05S
ORLANDO EXEC   CLOUDY    78  76  93 SE3       30.06S
ORLANDO INTL   MOCLDY    74  74 100 SE3       30.06S
KISSIMMEE      MOCLDY    78  75  90 S5        30.07S
WINTER HAVEN   PTCLDY    77  74  90 SE3       30.06F
LAKELAND       CLOUDY    77  77 100 E5        30.05F
BARTOW         FAIR      75 N/A N/A NE5       30.06S
SEBRING        FAIR      79  74  83 S8        30.06S

$$
FLZ041-047-054-059-064-141-147-261000-
EAST CENTRAL FLORIDA

CITY           SKY/WX    TMP DP  RH WIND       PRES   REMARKS
DAYTONA BEACH  CLOUDY    77  74  90 S5        30.05S
DELAND         CLOUDY    77  73  88 CALM      30.05S
JFK SPACE CTR  CLOUDY    79  76  90 S7        30.05S
CAPE CANAVERAL CLOUDY    77  74  91 S8        30.04F
MELBOURNE      PTCLDY    78  75  90 S3        30.06S
VERO BEACH     CLEAR     75  74  96 SW3       30.07F
FT PIERCE      CLEAR     74  74 100 CALM      30.07S
STUART         CLEAR     79  75  89 S5        30.07F

STATION/POSITION SKY/WX   TEMP    WIND        PRES    WAVE   SWELL
                          AIR SEA DIR/SP/G            HT/PER HT/PER
                          (F)     (DEG/KT/KT) (MB)    (FT/S) (FT/S)
28.5N   80.2W              80 80  200/  8/  8 1019.0R   2/ 8   2/ 8
28.9N   78.5W              82 83  160/ 14/ 16 1017.5F   3/ 8   2/ 8
TRIDENT PIER               76 81  160/  5/  6 1019.4S
28.4N   80.5W                 76                N/A     1/ 8
27.5N   80.2W                 80                N/A     2/ 8

$$
FLZ050-056-061-142-242-148-248-149-249-151-251-155-255-
160-260-261000-
WEST CENTRAL FLORIDA

CITY           SKY/WX    TMP DP  RH WIND       PRES   REMARKS
CRYSTAL RIVER  FAIR      75  73  94 CALM      30.06S THUNDER
INVERNESS      CLOUDY    75  75 100 CALM      30.07R THUNDER
BROOKSVILLE    PTCLDY    76  74  93 S5        30.07S
CLEARWATER AIR FAIR      77  75  94 CALM      30.05F
ST PETE CLEARW PTCLDY    79  75  87 CALM      30.06S
TAMPA INTL     CLOUDY    80  75  84 CALM      30.06S
TAMPA EXEC     CLOUDY    79  73  83 CALM      30.06S
PLANT CITY     CLOUDY    79  77  94 MISG      30.07F
MACDILL AFB    MOCLDY    78  78  99 NW5       30.05F
PETER O KNIGHT CLOUDY    81  79  94 CALM      30.05F
ST PETERSBURG  MOCLDY    81  76  84 SW5       30.04S
SARASOTA       LGT RAIN  78  73  84 SE10      30.05S
VENICE         CLOUDY    77  77 100 CALM      30.07S

STATION/POSITION SKY/WX   TEMP    WIND        PRES    WAVE   SWELL
                          AIR SEA DIR/SP/G            HT/PER HT/PER
                          (F)     (DEG/KT/KT) (MB)    (FT/S) (FT/S)
27.3N   84.2W                 84                N/A     2/ 6
CLEARWATER BEACH           81 87  150/  4/  7 1018.0S
MIDDLE TAMPA BAY           80     170/  8/  9 1017.9S
VENICE                     78 88   90/  5/  6 1017.9F

$$
FLZ066-069-070-075>078-162-262-165-265-261000-
SOUTHWEST FLORIDA AND KEYS

CITY           SKY/WX    TMP DP  RH WIND       PRES   REMARKS
PUNTA GORDA    CLOUDY    77  75  93 CALM      30.08S
FT MYERS       PTCLDY    77  76  96 CALM      30.05F
SOUTHWEST INTL PTCLDY    77  74  90 N3        30.06S
NAPLES         CLEAR     78  75  90 E5        30.06S
MARCO ISLAND   CLEAR     79  75  89 CALM      30.06S
IMMOKALEE      FAIR      75  75 100 E3        30.07S
MARATHON       PTCLDY    83  76  79 E7        30.03F
KEY WEST NAS   PTCLDY    82  76  81 E14       30.04F
KEY WEST INTL  PTCLDY    83  75  77 E14       30.04F

STATION/POSITION SKY/WX   TEMP    WIND        PRES    WAVE   SWELL
                          AIR SEA DIR/SP/G            HT/PER HT/PER
                          (F)     (DEG/KT/KT) (MB)    (FT/S) (FT/S)
NAPLES                        88  110/  2/  4 1017.9R
DRY TORTUGAS               83     120/ 14/ 16 1017.2F
SAND KEY                   82     120/ 15/ 18 1017.6F
LONG KEY                   83 85  130/  9/ 10 1017.5
MOLASSES REEF              82 83  100/  9/ 10 1017.7F

$$
FLZ067-068-071>074-168-172>174-261000-
SOUTHEAST FLORIDA

CITY           SKY/WX    TMP DP  RH WIND       PRES   REMARKS
W PALM BEACH   PTCLDY    81  73  76 S6        30.07F
FT LAUDER-EXEC CLEAR     73  73 100 E6        30.06S
FT LAUDERDALE  PTCLDY    82  76  81 SE10      30.05S
POMPANO BEACH  PTCLDY    83  74  74 SE8       30.06S
PEMBROKE PINES CLEAR     81  75  82 E6        30.07S
OPA LOCKA      PTCLDY    82  76  81 E6        30.06S
MIAMI          PTCLDY    83  75  77 E8        30.06S
WEST KENDALL   PTCLDY    80  74  81 E3        30.05F
HOMESTEAD      CLEAR     81  77  87 E8        30.05S

STATION/POSITION SKY/WX   TEMP    WIND        PRES    WAVE   SWELL
                          AIR SEA DIR/SP/G            HT/PER HT/PER
                          (F)     (DEG/KT/KT) (MB)    (FT/S) (FT/S)
PORT EVERGLADES            83     120/  4/  9 1017.8F
VIRGINIA KEY               83 87  110/  8/ 11 1017.2F
LAKE WORTH                 82 83  150/  8/ 10 1019.0F
FOWEY ROCKS                82 83  130/ 13/ 14 1018.3F
SETTLEMENT POINT           80     130/  6/  8 1018.2F

$$





USA.gov is the U.S. government's official web portal to all federal, state and local government web resources and services.